SCP
0 0 0 0 0 0 0 0 0 0 0 0 0 0 0 0 0 0 0 0 0 0 0 0 0 0 0 0 0 0 0 0 0 0 0 0 0 0 0 0 0 0 0 0
0 0 0 0 0 0 0 0 0 0 0 0 0 0 0 0 0 0 0 0 0 0 0 0 0 0 0 0 0 0 0 0 0 0 0 0 0 0 0 0 0 0 0 0
0 0 0 0 0 0 0 0 0 0 0 0 0 0 0 0 0 0 0 0 0 0 0 0 0 0 0 0 0 0 0 0 0 0 0 0 0 0 0 0 0 0 0 0
0 0 0 0 0 0 0 0 0 0 0 0 0 0 0 0 0 0 0 0 0 0 0 0 0 0 0 0 0 0 0 0 0 0 0 0 0 0 0 0 0 0 0 0
0 0 0 0 0 0 0 0 0 0 0 0 0 0 0 0 0 0 0 0 0 0 0 0 0 0 0 0 0 0 0 0 0 0 0 0 0 0 0 0 0 0 0 0
0 0 0 0 0 0 0 0 0 0 0 0 0 0 0 0 0 0 0 0 0 0 0 0 0 0 0 0 0 0 0 0 0 0 0 0 0 0 0 0 0 0 0 0
0 0 0 0 0 0 0 0 0 0 0 0 0 0 0 0 0 0 0 0 0 0 0 0 0 0 0 0 0 0 0 0 0 0 0 0 0 0 0 0 0 0 0 0
0 0 0 0 0 0 0 0 0 0 0 0 0 0 0 0 0 0 0 0 0 0 0 0 0 0 0 0 0 0 0 0 0 0 0 0 0 0 0 0 0 0 0 0
0 0 0 0 0 0 0 0 0 0 0 0 0 0 0 0 0 0 0 0 0 0 0 0 0 0 0 0 0 0 0 0 0 0 0 0 0 0 0 0 0 0 0 0
0 0 0 0 0 0 0 0 0 0 0 0 0 0 0 0 0 0 0 0 0 0 0 0 0 0 0 0 0 0 0 0 0 0 0 0 0 0 0 0 0 0 0 0
0 0 0 0 0 0 0 0 0 0 0 0 0 0 0 0 0 0 0 0 0 0 0 0 0 0 0 0 0 0 0 0 0 0 0 0 0 0 0 0 0 0 0 0
0 0 0 0 0 0 0 0 0 0 0 0 0 0 0 0 0 0 0 0 0 0 0 0 0 0 0 0 0 0 0 0 0 0 0 0 0 0 0 0 0 0 0 0
0 0 0 0 0 0 0 0 0 0 0 0 0 0 0 0 0 0 0 0 0 0 0 0 0 0 0 0 0 0 0 0 0 0 0 0 0 0 0 0 0 0 0 0
0 0 0 0 0 0 0 0 0 0 0 0 0 0 0 0 0 0 0 0 0 0 0 0 0 0 0 0 0 0 0 0 0 0 0 0 0 0 0 0 0 0 0 0
0 0 0 0 0 0 0 0 0 0 0 0 0 0 0 0 0 0 0 0 0 0 0 0 0 0 0 0 0 0 0 0 0 0 0 0 0 0 0 0 0 0 0 0
0 0 0 0 0 0 0 0 0 0 0 0 0 0 0 0 0 0 0 0 0 0 0 0 0 0 0 0 0 0 0 0 0 0 0 0 0 0 0 0 0 0 0 0
0 0 0 0 0 0 0 0 0 0 0 0 0 0 0 0 0 0 0 0 0 0 0 0 0 0 0 0 0 0 0 0 0 0 0 0 0 0 0 0 0 0 0 0
0 0 0 0 0 0 0 0 0 0 0 0 0 0 0 0 0 0 0 0 0 0 0 0 0 0 0 0 0 0 0 0 0 0 0 0 0 0 0 0 0 0 0 0
0 0 0 0 0 0 0 0 0 0 0 0 0 0 0 0 0 0 0 0 0 0 0 0 0 0 0 0 0 0 0 0 0 0 0 0 0 0 0 0 0 0 0 0
0 0 0 0 0 0 0 0 0 0 0 0 0 0 0 0 0 0 0 0 0 0 0 0 0 0 0 0 0 0 0 0 0 0 0 0 0 0 0 0 0 0 0 0
0 0 0 0 0 0 0 0 0 0 0 0 0 0 0 0 0 0 0 0 0 0 0 0 0 0 0 0 0 0 0 0 0 0 0 0 0 0 0 0 0 0 0 0
0 0 0 0 0 0 0 0 0 0 0 0 0 0 0 0 0 0 0 0 0 0 0 0 0 0 0 0 0 0 0 0 0 0 0 0 0 0 0 0 0 0 0 0
0 0 0 0 0 0 0 0 0 0 0 0 0 0 0 0 0 0 0 0 0 0 0 0 0 0 0 0 0 0 0 0 0 0 0 0 0 0 0 0 0 0 0 0
0 0 0 0 0 0 0 0 0 0 0 0 0 0 0 0 0 0 0 0 0 0 0 0 0 0 0 0 0 0 0 0 0 0 0 0 0 0 0 0 0 0 0 0
0 0 0 0 0 0 0 0 0 0 0 0 0 0 0 0 0 0 0 0 0 0 0 0 0 0 0 0 0 0 0 0 0 0 0 0 0 0 0 0 0 0 0 0
0 0 0 0 0 0 0 0 0 0 0 0 0 0 0 0 0 0 0 0 0 0 0 0 0 0 0 0 0 0 0 0 0 0 0 0 0 0 0 0 0 0 0 0
0 0 0 0 0 0 0 0 0 0 0 0 0 0 0 0 0 0 0 0 0 0 0 0 0 0 0 0 0 0 0 0 0 0 0 0 0 0 0 0 0 0 0 0
Wind_Speed
6 5 6 7 8 10 12 12 10 9 10 12 9 9 8 7 7 8 9 10 12 12 10 9 9 8 8 7 6 5 5 4 3 3 3 3 4 5 5 5 6 6 7 7
4 5 6 6 7 9 11 10 11 9 12 10 7 5 5 7 9 10 11 11 11 11 11 11 10 9 8 7 6 5 4 4 3 3 3 4 5 5 5 6 6 6 7 8
4 2 1 7 9 10 8 9 10 14 16 7 5 7 9 9 10 11 11 10 11 12 12 11 10 9 9 7 5 5 4 3 3 4 4 5 5 5 6 6 6 7 8 8
4 3 8 10 5 8 9 10 10 9 7 6 8 6 4 6 9 9 8 9 9 9 8 7 7 7 6 6 5 4 3 4 4 4 5 6 6 6 7 6 7 7 8 9
5 5 7 8 5 7 8 9 8 10 8 4 2 2 3 2 5 7 7 7 7 8 7 7 8 7 7 5 4 3 4 5 5 5 6 6 7 8 7 6 7 7 8 9
5 5 8 9 5 3 4 7 6 7 7 6 6 3 5 3 4 4 5 6 7 7 7 8 7 7 6 5 4 5 6 6 5 5 6 7 8 8 7 6 8 8 8 8
6 6 9 9 3 5 6 9 3 5 7 9 8 6 4 5 4 5 6 6 8 8 7 7 6 6 5 4 5 6 5 5 5 6 6 7 7 7 7 7 8 8 9 9
6 6 11 6 7 9 9 3 3 4 6 7 5 4 5 5 6 7 7 6 7 7 5 4 5 6 5 5 5 4 4 5 6 6 6 6 7 7 7 7 8 8 9 9
11 10 6 7 9 6 5 5 5 5 5 7 6 5 6 6 6 6 6 6 5 6 5 3 4 5 5 5 4 4 5 6 7 7 6 6 6 7 7 6 7 8 7 9
5 7 5 5 4 4 5 5 5 5 6 7 7 7 7 7 6 6 5 5 5 5 5 4 3 4 5 4 4 4 6 7 6 6 7 6 6 6 6 6 7 8 8 9
6 5 2 4 7 6 4 4 4 4 5 7 7 7 7 7 7 6 5 4 4 5 5 4 4 4 4 4 4 5 6 7 6 6 7 7 6 6 7 7 8 10 8 8
8 8 7 7 6 7 7 6 6 6 4 4 6 7 7 6 6 6 5 4 4 4 4 4 4 5 5 5 5 5 6 6 5 5 6 6 7 8 12 14 19 21 21 19
6 4 5 3 3 5 6 6 5 6 6 5 4 5 7 5 5 5 5 4 5 5 4 4 4 6 6 5 5 6 7 7 6 6 6 6 6 8 10 12 16 19 21 22
3 5 3 3 3 4 5 5 5 5 4 5 5 5 5 5 4 5 5 4 4 3 4 4 5 7 6 5 5 7 7 9 8 6 6 6 7 7 8 10 11 9 12 19
2 3 4 4 4 5 5 6 6 5 4 4 4 5 6 5 5 4 3 2 2 3 4 5 6 8 6 5 6 7 7 6 6 6 6 7 7 7 8 10 11 11 9 11
4 4 5 6 6 5 5 5 6 5 4 4 4 4 4 4 3 2 2 2 3 5 5 5 7 8 6 6 7 6 6 12 12 7 6 7 7 8 9 9 10 10 10 10
6 5 5 5 5 4 4 4 5 5 5 4 4 4 3 3 1 1 2 3 4 5 6 6 8 8 7 7 7 6 6 8 15 10 7 7 8 8 9 9 10 11 10 12
5 5 6 7 7 6 5 5 5 5 4 4 4 4 3 2 2 3 4 3 4 6 7 7 7 7 7 7 6 6 6 7 7 8 8 8 9 9 9 10 11 12 11 11
5 6 6 6 7 7 6 5 4 4 4 4 4 2 2 2 3 3 3 4 5 7 7 6 12 9 7 9 10 6 7 8 8 8 8 13 12 9 9 10 11 11 11 11
7 7 8 7 7 6 6 5 5 4 3 3 2 1 1 2 3 3 4 5 6 7 7 9 9 7 8 9 13 7 7 9 9 9 9 9 10 10 10 10 11 11 10 10
8 8 8 8 7 6 5 5 4 3 2 2 1 1 3 4 4 3 4 6 7 7 8 12 8 6 7 10 13 7 7 8 9 9 10 10 10 11 11 11 11 11 11 10
7 7 8 7 7 5 4 3 3 2 1 1 1 2 3 4 5 5 6 7 7 11 8 6 6 11 14 16 8 7 8 9 9 9 9 10 10 11 11 11 11 11 11 10
6 7 6 6 5 4 3 3 2 1 1 2 3 4 4 5 4 5 8 5 5 12 10 6 12 20 23 12 7 7 9 9 10 10 10 10 11 11 11 12 11 11 10 10
6 6 5 4 4 4 3 2 2 2 2 3 4 5 5 5 5 5 6 11 15 17 9 12 21 23 22 8 7 8 9 9 10 10 10 10 10 10 11 11 11 11 11 12
5 5 4 4 3 2 1 2 3 3 3 3 5 5 5 5 6 7 7 8 14 16 9 13 21 22 14 8 9 9 9 10 11 11 10 10 10 11 11 11 11 11 11 11
4 3 2 1 1 1 1 2 2 3 4 5 5 5 5 5 6 7 7 8 11 15 11 9 10 13 9 9 10 10 10 11 12 11 10 11 12 12 12 12 13 12 12 12
3 2 2 2 2 1 2 2 3 4 4 5 7 6 6 6 7 7 9 9 9 9 9 9 8 9 9 10 10 10 10 10 10 11 11 11 11 11 12 13 12 11 11 12
Wind_Direction
211 214 173 198 205 193 199 207 211 231 233 246 238 230 228 217 201 190 190 187 186 183 177 171 166 165 163 162 160 156 157 173 205 224 238 253 265 270 273 275 275 276 279 281
217 214 201 221 225 209 215 220 228 246 258 248 245 225 221 211 196 197 197 193 186 178 172 172 170 167 163 164 165 159 170 197 216 232 248 259 265 269 273 275 276 275 275 276
219 228 189 245 220 207 211 211 201 226 244 248 232 224 220 210 200 200 198 188 181 179 177 174 171 166 168 168 161 165 185 209 227 239 254 262 266 270 271 272 272 276 275 273
166 155 226 240 223 205 216 233 218 227 243 231 223 225 229 204 193 197 190 181 177 170 166 160 156 154 152 151 159 175 200 227 239 244 255 265 268 268 269 267 269 271 273 272
153 203 259 284 246 193 200 250 228 225 236 227 165 82 316 241 189 191 184 172 165 159 151 146 150 151 145 152 164 188 221 237 243 243 253 262 265 267 268 269 272 270 269 272
152 183 227 239 231 182 148 264 247 205 207 182 138 165 250 212 158 149 141 140 139 135 132 142 151 146 146 167 186 217 231 239 245 246 250 257 262 267 268 267 270 274 275 272
174 210 250 247 211 123 178 240 231 187 186 171 184 201 192 140 130 133 131 132 134 136 143 153 152 146 160 187 217 230 237 247 254 253 253 257 263 265 270 273 276 276 278 276
169 202 245 220 151 185 213 200 173 175 176 177 183 140 136 142 140 138 133 135 138 138 143 151 153 155 181 217 232 238 245 254 259 261 263 268 265 271 272 274 279 280 282 283
190 211 226 184 197 207 171 175 185 178 178 159 154 162 159 156 153 150 145 145 141 143 148 165 174 173 200 232 237 243 253 259 264 268 266 264 265 272 278 275 276 282 282 285
216 248 237 221 220 204 190 190 184 173 164 160 166 169 166 162 160 156 152 153 146 148 163 192 205 207 218 236 239 244 257 265 267 270 272 270 265 265 270 272 275 280 282 285
220 246 239 240 219 207 188 169 158 156 167 171 162 167 169 169 169 166 161 158 157 168 187 210 221 235 241 241 242 252 261 266 270 268 269 274 269 262 268 257 262 277 277 275
210 206 190 220 214 182 174 184 178 164 159 161 166 168 164 168 168 164 164 160 167 184 203 223 233 248 254 250 243 250 264 268 268 269 270 271 278 284 276 276 286 287 288 288
197 179 180 200 168 168 180 186 174 167 162 156 154 155 155 155 159 157 161 171 188 204 218 233 246 258 262 257 250 249 257 266 269 267 270 272 276 283 292 292 286 287 289 292
156 129 145 181 171 157 148 141 130 123 128 135 136 134 136 136 145 160 179 193 200 215 234 244 253 262 264 259 255 257 259 268 273 265 265 268 272 274 279 288 295 289 286 290
166 156 161 145 124 119 117 119 118 123 122 116 121 132 140 147 164 182 190 193 209 238 250 254 259 267 269 263 261 263 264 265 266 264 264 266 269 273 276 279 284 289 289 288
139 118 124 132 140 135 130 135 139 147 140 133 133 141 148 149 157 175 201 203 222 249 258 260 263 269 273 270 268 268 265 276 283 277 269 270 271 275 278 280 283 284 285 287
146 160 161 158 157 149 149 150 151 150 144 142 146 138 128 125 142 225 250 248 244 252 259 261 267 274 275 270 267 268 267 275 284 284 272 272 274 275 276 279 281 282 282 285
171 173 167 159 154 145 137 131 132 133 138 142 132 128 138 166 218 251 266 276 281 280 272 265 269 277 274 272 268 265 267 268 268 270 274 274 277 275 277 279 281 284 286 288
121 123 123 125 130 129 126 124 123 120 119 125 131 150 186 225 244 262 274 280 282 284 281 275 292 293 280 277 285 269 267 272 275 274 274 281 285 280 280 281 281 282 285 288
99 102 103 102 101 108 112 111 108 103 104 113 118 130 269 275 275 278 279 271 261 259 271 285 288 279 277 278 288 275 270 273 277 280 280 278 280 281 280 281 282 282 283 284
103 102 102 101 95 90 94 101 104 101 89 96 132 245 272 283 283 279 279 284 278 271 278 290 290 281 283 286 291 278 275 277 280 281 283 284 284 284 283 284 284 284 284 283
101 102 101 99 96 86 73 75 86 89 64 7 316 288 286 288 286 279 260 261 277 292 295 280 278 288 295 298 287 282 281 283 284 284 283 283 283 284 285 284 283 283 282 281
96 96 94 91 92 85 62 55 55 53 333 299 291 286 281 277 275 281 290 280 280 294 298 280 291 299 303 302 286 284 285 285 285 284 283 282 281 281 282 283 282 283 283 282
92 87 84 81 80 73 49 8 352 331 299 287 278 274 277 285 283 263 266 291 300 301 296 293 301 304 307 299 286 285 284 283 282 281 281 281 280 281 281 282 282 280 279 279
87 82 77 72 64 46 356 336 332 318 306 293 286 281 274 265 274 287 286 286 295 302 296 298 302 305 304 289 286 284 283 280 282 285 283 284 285 284 283 282 280 281 281 280
79 77 69 61 46 321 315 316 307 304 305 303 299 290 284 280 279 284 288 287 287 297 298 293 291 295 290 285 285 285 284 288 290 286 282 283 283 283 283 283 282 282 282 280
70 62 49 24 2 337 311 300 296 297 298 298 298 296 294 294 293 293 294 295 295 294 293 292 291 289 290 288 287 286 285 285 284 282 282 282 282 282 282 282 282 282 281 279